Regional Weather Roundup
Issued by NWS Cleveland, OH

Home | Current Version | Previous Version | Graphics & Text | Print | Product List | Glossary On
Versions: 1 2 3 4 5 6 7 8 9 10 11 12 13 14 15 16 17 18 19 20 21 22 23 24 25 26 27 28 29 30 31 32 33 34 35 36 37 38 39 40 41 42 43 44 45 46 47 48 49 50
000
ASUS41 KCLE 280300
RWRCLE
OHIO REGIONAL WEATHER ROUNDUP
NATIONAL WEATHER SERVICE WILMINGTON, OH
1100 PM EDT MON APR 27 2015

NOTE: "FAIR" INDICATES FEW OR NO CLOUDS BELOW 12,000 FEET WITH NO
SIGNIFICANT WEATHER AND/OR OBSTRUCTIONS TO VISIBILITY.

OHZ001>008-015>018-024>027-034-035-043-044-280400-
   NORTHWEST OHIO

CITY           SKY/WX    TMP DP  RH WIND       PRES   REMARKS
DEFIANCE       MOCLDY    43  34  70 CALM      30.09S
FINDLAY        CLEAR     43  34  70 CALM      30.08R
TOLEDO EXPRESS MOCLDY    45  33  63 CALM      30.08S
TOLEDO EXEC    CLEAR     46  33  60 N5        30.09R
LIMA           CLEAR     43  34  70 CALM      30.08R
$$

OHZ009>014-019>023-028>033-038-089-280400-
   NORTHEAST OHIO

CITY           SKY/WX    TMP DP  RH WIND       PRES   REMARKS
CLE-HOPKINS    MOCLDY    43  35  73 N10       30.09R
CLE-LAKEFRONT  CLOUDY    44  37  76 N10       30.06S
CUY CO. ARPT   CLOUDY    45  39  81 N7        30.06S
LORAIN-ELYRIA  CLEAR     41  35  79 N7        30.08R
ASHTABULA      CLOUDY    42  36  79 NW6       30.04R
AKRON-CANTON   CLOUDY    43  34  70 N9        30.04S
WOOSTER        NOT AVBL
MANSFIELD      CLOUDY    41  35  79 NW6       30.06S
YOUNGSTOWN     CLOUDY    41  35  79 NW6       30.02S
$$

OHZ042-051>053-060>062-070>072-077>081-280400-
  SOUTHWEST OHIO

CITY           SKY/WX    TMP DP  RH WIND       PRES   REMARKS
CINC-COVINGTON CLOUDY    51  37  58 N12       30.06R
CINC-LUNKEN    CLOUDY    50  38  63 NE9       30.08R
HAMILTON       CLOUDY    50  38  63 NE10      30.08R
DAYTON         NOT AVBL
WRIGHT-PAT AFB NOT AVBL
DAYTON GENERAL MOCLDY    46  37  71 NE8       30.06R
WILMINGTON     CLOUDY    45  36  70 NE9       30.06R
$$

OHZ036-037-039>041-045>050-054>059-063>069-073>076-082>088-280400-
  CENTRAL AND SOUTHEAST OHIO

CITY           SKY/WX    TMP DP  RH WIND       PRES   REMARKS
COLUMBUS       PTCLDY    42  34  73 N5        30.07R
OSU AIRPORT    CLEAR     40  33  76 N7        30.07R
BOLTON FIELD   NOT AVBL
RICKENBACK AFB NOT AVBL
NEWARK         CLEAR     38  32  79 W3        30.06R
MARION         CLEAR     38  33  82 N5        30.07S
LANCASTER      PTCLDY    39  34  82 N3        30.07R
ZANESVILLE     CLEAR     41  32  70 CALM      30.05S
NEW PHILLY     CLOUDY    45  34  65 N6        30.06R
$$


USA.gov is the U.S. government's official web portal to all federal, state and local government web resources and services.